Latest Coastal Weather Observations for Groote Eylandt Airport

IDD60701

Issued at 7:31 pm CST Thursday 13 June 2024 (issued every 10 minutes, with the page automatically refreshed every 10 minutes)

About coastal observations | Map of coastal stations | Coastal observations for NT | Marine services | Other Formats
Station Details ID: 014518 Name: GROOTE EYLANDT AIRPORT Lat: -13.97 Lon: 136.46 Height: 13.7 m
Data from the previous 72 hours. | See also: Recent months at Groote Eylandt Airport
Date/Time
CST
Wind Sea
Height
m
Swell Vis
km
Cloud Weather Temp
°C
Press
MSL
hPa
Rain since
9am
mm
Dir  Spd
kts
Gust
kts
Height
m
Period
s
Dir
13/07:00pm - - - - - - - 10 - - 23.4 1013.2 0.0
13/06:30pm - - - - - - - 10 - - 24.3 1012.9 0.0
13/06:00pm - - - - - - - 10 - - 25.7 1012.7 0.0
13/05:30pm - - - - - - - 10 - - 26.9 1012.3 0.0
13/05:00pm - - - - - - - 10 - - 28.1 1012.0 0.0
13/04:30pm CALM 0 0 - - - - 10 - - 28.7 1012.0 0.0
13/04:00pm CALM 0 0 - - - - 10 - - 29.6 1012.0 0.0
13/03:30pm CALM 0 0 - - - - 10 - - 30.0 1012.1 0.0
13/03:00pm CALM 0 0 - - - - 10 - - 30.6 1012.3 0.0
13/02:30pm CALM 0 0 - - - - 10 - - 30.0 1012.6 0.0
13/02:00pm CALM 0 0 - - - - 10 - - 30.0 1012.8 0.0
13/01:30pm CALM 0 0 - - - - 10 - - 30.6 1013.1 0.0
13/01:00pm CALM 0 0 - - - - 10 - - 30.2 1013.5 0.0
13/12:30pm CALM 0 0 - - - - 10 - - 30.3 1014.1 0.0
13/12:00pm CALM 0 0 - - - - 10 - - 29.8 1014.6 0.0
13/11:30am CALM 0 0 - - - - 10 - - 29.0 1015.0 0.0
13/11:00am CALM 0 0 - - - - 10 - - 28.8 1015.3 0.0
13/10:30am CALM 0 0 - - - - 10 - - 28.9 1015.3 0.0
13/10:00am CALM 0 0 - - - - 10 - - 28.1 1015.4 0.0
13/09:30am CALM 0 0 - - - - 10 - - 25.9 1015.6 0.0
13/09:00am CALM 0 0 - - - - 10 - - 23.3 1015.7 0.0
13/08:30am CALM 0 0 - - - - 10 - - 21.1 1015.6 0.0
13/08:00am CALM 0 0 - - - - 10 - - 17.9 1015.3 0.0
13/07:30am CALM 0 0 - - - - 10 - - 14.9 1015.0 0.0
13/07:00am CALM 0 0 - - - - 10 - - 13.7 1014.7 0.0
13/06:30am CALM 0 0 - - - - 10 - - 13.8 1014.4 0.0
13/06:00am CALM 0 0 - - - - 10 - - 13.6 1014.1 0.0
13/05:30am CALM 0 0 - - - - 10 - - 13.7 1014.0 0.0
13/05:00am CALM 0 0 - - - - 10 - - 13.9 1014.0 0.0
13/04:30am CALM 0 0 - - - - 10 - - 14.8 1014.0 0.0
13/04:00am CALM 0 0 - - - - 10 - - 14.3 1014.0 0.0
13/03:30am CALM 0 0 - - - - 10 - - 14.6 1014.0 0.0
13/03:00am CALM 0 0 - - - - 10 - - 14.4 1014.2 0.0
13/02:30am CALM 0 0 - - - - 10 - - 14.7 1014.2 0.0
13/02:00am CALM 0 0 - - - - 10 - - 14.8 1014.5 0.0
13/01:30am CALM 0 0 - - - - 10 - - 15.0 1014.8 0.0
13/01:00am CALM 0 0 - - - - 10 - - 15.6 1015.0 0.0
13/12:30am CALM 0 0 - - - - 10 - - 15.6 1015.2 0.0
13/12:00am CALM 0 0 - - - - 10 - - 16.4 1015.4 0.0
 
Date/Time
CST
Wind Sea
Height
m
Swell Vis
km
Cloud Weather Temp
°C
Press
MSL
hPa
Rain since
9am
mm
Dir  Spd
kts
Gust
kts
Height
m
Period
s
Dir
12/11:30pm CALM 0 0 - - - - 10 - - 16.9 1015.5 0.0
12/11:00pm CALM 0 0 - - - - 10 - - 17.5 1015.7 0.0
12/10:30pm CALM 0 0 - - - - 10 - - 18.1 1015.9 0.0
12/10:00pm CALM 0 0 - - - - 10 - - 18.9 1015.9 0.0
12/09:30pm CALM 0 0 - - - - 10 - - 19.8 1016.0 0.0
12/09:00pm CALM 0 0 - - - - 10 - - 20.6 1016.1 0.0
12/08:30pm CALM 0 0 - - - - 10 - - 21.3 1015.9 0.0
12/08:00pm CALM 0 0 - - - - 10 - - 22.0 1015.6 0.0
12/07:30pm CALM 0 0 - - - - 10 - - 22.8 1015.4 0.0
12/07:00pm CALM 0 0 - - - - 10 - - 23.6 1015.0 0.0
12/06:30pm CALM 0 0 - - - - 10 - - 24.6 1014.6 0.0
12/06:00pm CALM 0 0 - - - - 10 - - 25.5 1014.5 0.0
12/05:30pm CALM 0 0 - - - - 10 - - 27.6 1014.3 0.0
12/05:00pm CALM 0 0 - - - - 10 - - 28.3 1014.1 0.0
12/04:30pm CALM 0 0 - - - - 10 - - 29.1 1014.0 0.0
12/04:00pm CALM 0 0 - - - - 10 - - 29.5 1013.9 0.0
12/03:30pm CALM 0 0 - - - - 10 - - 30.2 1013.9 0.0
12/03:00pm CALM 0 0 - - - - 10 - - 30.1 1013.8 0.0
12/02:30pm CALM 0 0 - - - - 10 - - 30.3 1013.9 0.0
12/02:00pm CALM 0 0 - - - - 10 - - 30.8 1014.2 0.0
12/01:30pm CALM 0 0 - - - - 10 - - 30.1 1014.5 0.0
12/01:00pm CALM 0 0 - - - - 10 - - 30.2 1014.8 0.0
12/12:30pm CALM 0 0 - - - - 10 - - 30.3 1015.2 0.0
12/12:00pm CALM 0 0 - - - - 10 - - 29.4 1015.7 0.0
12/11:30am CALM 0 0 - - - - 10 - - 29.6 1016.0 0.0
12/11:00am CALM 0 0 - - - - 10 - - 28.3 1016.3 0.0
12/10:30am CALM 0 0 - - - - 10 - - 28.0 1016.5 0.0
12/10:00am CALM 0 0 - - - - 10 - - 27.0 1016.6 0.0
12/09:30am CALM 0 0 - - - - 10 - - 25.4 1016.8 0.0
12/09:00am CALM 0 2 - - - - 10 - - 22.9 1016.7 0.0
12/08:30am CALM 0 0 - - - - 10 - - 19.2 1016.6 0.0
12/08:17am CALM 0 0 - - - - 10 Partly cloudy - 18.5 1016.4 0.0
12/08:00am CALM 0 0 - - - - 10 Partly cloudy - 16.2 1016.2 0.0
12/07:30am CALM 0 0 - - - - 10 Cloudy - 13.8 1016.0 0.0
12/07:01am CALM 0 0 - - - - 10 Cloudy - 13.0 1015.7 0.0
12/07:00am CALM 0 0 - - - - 10 Cloudy - 12.9 1015.6 0.0
12/06:30am CALM 0 3 - - - - 10 Partly cloudy - 12.9 1015.4 0.0
12/06:13am E 3 5 - - - - 5 Partly cloudy - 13.0 1015.2 0.0
12/06:06am E 2 5 - - - - 10 Partly cloudy - 12.9 1015.2 0.0
12/06:00am CALM 0 3 - - - - 10 Cloudy - 13.0 1015.2 0.0
12/05:47am CALM 0 0 - - - - 3 Partly cloudy - 13.3 1015.2 0.0
12/05:46am CALM 0 0 - - - - 5 Partly cloudy - 13.4 1015.2 0.0
12/05:30am E 2 3 - - - - 10 Partly cloudy - 13.5 1015.1 0.0
12/05:00am ESE 3 6 - - - - 10 Partly cloudy - 13.4 1014.9 0.0
12/04:30am SE 4 4 - - - - 10 - - 13.8 1014.9 0.0
12/04:00am SE 2 4 - - - - 10 - - 13.7 1014.8 0.0
12/03:30am SE 3 4 - - - - 10 - - 14.2 1014.8 0.0
12/03:00am SE 3 4 - - - - 10 - - 14.6 1015.1 0.0
12/02:30am CALM 0 0 - - - - 10 - - 15.0 1015.2 0.0
12/02:00am SE 3 3 - - - - 10 - - 15.4 1015.4 0.0
12/01:30am SE 2 3 - - - - 10 - - 15.7 1015.6 0.0
12/01:00am SE 3 4 - - - - 10 - - 16.1 1015.8 0.0
12/12:30am CALM 0 0 - - - - 10 - - 16.6 1015.8 0.0
12/12:00am SE 1 4 - - - - 10 - - 16.9 1015.9 0.0
 
Date/Time
CST
Wind Sea
Height
m
Swell Vis
km
Cloud Weather Temp
°C
Press
MSL
hPa
Rain since
9am
mm
Dir  Spd
kts
Gust
kts
Height
m
Period
s
Dir
11/11:30pm CALM 0 0 - - - - 10 - - 17.4 1016.2 0.0
11/11:00pm CALM 0 0 - - - - 10 - - 17.9 1016.3 0.0
11/10:30pm CALM 0 4 - - - - 10 - - 18.3 1016.5 0.0
11/10:00pm CALM 0 0 - - - - 10 - - 18.8 1016.6 0.0
11/09:30pm CALM 0 0 - - - - 10 - - 19.2 1016.7 0.0
11/09:00pm CALM 0 0 - - - - 10 - - 20.0 1016.6 0.0
11/08:30pm SE 3 3 - - - - 10 - - 20.9 1016.6 0.0
11/08:00pm SE 3 4 - - - - 10 - - 21.6 1016.3 0.0
11/07:30pm CALM 0 0 - - - - 10 - - 22.2 1016.1 0.0
11/07:25pm CALM 0 0 - - - - 10 - - 22.5 1016.1 0.0
11/07:06pm SE 3 4 - - - - 4 - - 23.4 1016.0 0.0
11/07:00pm SE 3 5 - - - - 10 - - 23.3 1015.9 0.0
11/06:30pm ESE 4 5 - - - - 10 - - 24.3 1015.5 0.0
11/06:00pm ESE 5 8 - - - - 10 - - 25.6 1015.2 0.0
11/05:30pm ESE 6 8 - - - - 10 - - 26.9 1015.1 0.0
11/05:00pm ESE 7 9 - - - - 10 - - 27.4 1015.0 0.0
11/04:30pm ESE 8 11 - - - - 10 - - 28.1 1014.9 0.0
11/04:00pm ESE 8 12 - - - - 10 - - 28.5 1014.8 0.0
11/03:30pm ESE 7 11 - - - - 10 - - 28.9 1014.9 0.0
11/03:00pm ESE 8 13 - - - - 10 - - 28.7 1015.0 0.0
11/02:30pm ESE 7 11 - - - - 10 Partly cloudy - 29.0 1015.2 0.0
11/02:00pm ESE 9 15 - - - - 10 Partly cloudy - 28.6 1015.2 0.0
11/01:30pm E 8 14 - - - - 10 - - 29.1 1015.5 0.0
11/01:00pm SE 9 16 - - - - 10 - - 29.1 1015.8 0.0
11/12:30pm ESE 10 15 - - - - 10 - - 28.9 1016.2 0.0
11/12:00pm ESE 8 14 - - - - 10 - - 28.3 1016.6 0.0
11/11:30am ESE 9 16 - - - - 10 - - 28.3 1017.1 0.0
11/11:00am ESE 9 17 - - - - 10 - - 27.9 1017.3 0.0
11/10:30am ESE 8 13 - - - - 10 - - 27.7 1017.4 0.0
11/10:00am ESE 7 10 - - - - 10 - - 27.3 1017.5 0.0
11/09:30am ESE 4 8 - - - - 10 - - 26.4 1017.6 0.0
11/09:00am SE 4 5 - - - - 10 - - 24.3 1017.6 0.0
11/08:30am CALM 0 0 - - - - 10 - - 22.0 1017.4 0.0
11/08:00am CALM 0 0 - - - - 10 - - 18.3 1017.2 0.0
11/07:30am CALM 0 0 - - - - 10 - - 15.5 1016.8 0.0
11/07:00am CALM 0 0 - - - - 10 - - 13.8 1016.5 0.0
11/06:30am E 4 5 - - - - 10 - - 13.5 1016.4 0.0
11/06:00am E 3 5 - - - - 10 - - 13.5 1016.3 0.0
11/05:30am CALM 0 0 - - - - 10 - - 13.8 1016.3 0.0
11/05:00am E 3 3 - - - - 10 - - 14.4 1016.2 0.0
11/04:30am E 3 4 - - - - 10 - - 14.6 1015.9 0.0
11/04:00am CALM 0 3 - - - - 10 - - 14.9 1015.8 0.0
11/03:30am E 1 3 - - - - 10 - - 15.4 1016.0 0.0
11/03:00am CALM 0 0 - - - - 10 - - 16.0 1016.1 0.0
11/02:30am CALM 0 0 - - - - 10 - - 16.7 1016.1 0.0
11/02:00am ESE 4 5 - - - - 10 - - 16.9 1016.2 0.0
11/01:30am ESE 3 4 - - - - 10 - - 17.6 1016.5 0.0
11/01:00am ESE 4 5 - - - - 10 - - 18.6 1016.5 0.0
11/12:30am ESE 4 5 - - - - 10 - - 19.8 1016.4 0.0
11/12:00am ESE 4 5 - - - - 10 - - 20.3 1016.4 0.0
 
Date/Time
CST
Wind Sea
Height
m
Swell Vis
km
Cloud Weather Temp
°C
Press
MSL
hPa
Rain since
9am
mm
Dir  Spd
kts
Gust
kts
Height
m
Period
s
Dir
10/11:30pm SE 4 5 - - - - 10 - - 21.1 1016.5 0.0
10/11:00pm SE 5 8 - - - - 10 - - 21.7 1016.5 0.0
10/10:30pm SSE 5 7 - - - - 10 - - 22.1 1016.5 0.0
10/10:00pm SSE 5 8 - - - - 10 - - 22.4 1016.4 0.0
10/09:30pm SSE 4 7 - - - - 10 - - 22.0 1016.3 0.0
10/09:00pm SE 4 7 - - - - 10 - - 22.5 1016.5 0.0
10/08:30pm SSE 3 5 - - - - 10 - - 22.3 1016.2 0.0
10/08:00pm SE 4 5 - - - - 10 - - 22.4 1016.0 0.0

Other formats

Comma delimited format used in spreadsheet applications
http://www.bom.gov.au/fwo/IDD60701/IDD60701.94153.axf

JavaScript Object Notation format (JSON) in row-major order
http://www.bom.gov.au/fwo/IDD60701/IDD60701.94153.json

Data quality

Most of these data are generated automatically and are frequently updated. Quality checks on data are not normally performed. It is possible for incorrect values to appear. Refer to information at About Latest Weather Observations and please check the disclaimer before using these data.